Year,Month,Day,Hour,Minute,Value (Times are PST for temperature in C)
2007,09,28,00,00,12.00
2007,09,28,00,01,12.00
2007,09,28,00,02,12.00
2007,09,28,00,03,12.00
2007,09,28,00,04,11.90
2007,09,28,00,05,11.90
2007,09,28,00,06,11.90
2007,09,28,00,07,11.90
2007,09,28,00,08,11.90
2007,09,28,00,09,11.90
2007,09,28,00,10,11.90
2007,09,28,00,11,11.90
2007,09,28,00,12,11.90
2007,09,28,00,13,11.90
2007,09,28,00,14,11.90
2007,09,28,00,15,11.90
2007,09,28,00,16,11.90
2007,09,28,00,17,11.90
2007,09,28,00,18,11.90
2007,09,28,00,19,11.90
2007,09,28,00,20,11.90
2007,09,28,00,21,11.90
2007,09,28,00,22,11.90
2007,09,28,00,23,11.90
2007,09,28,00,24,11.90
2007,09,28,00,25,11.80
2007,09,28,00,26,11.80
2007,09,28,00,27,11.80
2007,09,28,00,28,11.80
2007,09,28,00,29,11.80
2007,09,28,00,30,11.80
2007,09,28,00,31,11.80
2007,09,28,00,32,11.70
2007,09,28,00,33,11.70
2007,09,28,00,34,11.70
2007,09,28,00,35,11.70
2007,09,28,00,36,11.70
2007,09,28,00,37,11.70
2007,09,28,00,38,11.70
2007,09,28,00,39,11.70
2007,09,28,00,40,11.70
2007,09,28,00,41,11.70
2007,09,28,00,42,11.70
2007,09,28,00,43,11.70
2007,09,28,00,44,11.70
2007,09,28,00,45,11.70
2007,09,28,00,46,11.70
2007,09,28,00,47,11.70
2007,09,28,00,48,11.70
2007,09,28,00,49,11.70
2007,09,28,00,50,11.60
2007,09,28,00,51,11.60
2007,09,28,00,52,11.60
2007,09,28,00,53,11.60
2007,09,28,00,54,11.60
2007,09,28,00,55,11.60
2007,09,28,00,56,11.50
2007,09,28,00,57,11.50
2007,09,28,00,58,11.50
2007,09,28,00,59,11.40
2007,09,28,01,00,11.30
2007,09,28,01,01,11.30
2007,09,28,01,02,11.20
2007,09,28,01,03,11.20
2007,09,28,01,04,11.10
2007,09,28,01,05,11.10
2007,09,28,01,06,11.00
2007,09,28,01,07,10.90
2007,09,28,01,08,10.90
2007,09,28,01,09,10.80
2007,09,28,01,10,10.80
2007,09,28,01,11,10.70
2007,09,28,01,12,10.70
2007,09,28,01,13,10.60
2007,09,28,01,14,10.60
2007,09,28,01,15,10.60
2007,09,28,01,16,10.60
2007,09,28,01,17,10.60
2007,09,28,01,18,10.50
2007,09,28,01,19,10.50
2007,09,28,01,20,10.50
2007,09,28,01,21,10.40
2007,09,28,01,22,10.40
2007,09,28,01,23,10.40
2007,09,28,01,24,10.30
2007,09,28,01,25,10.30
2007,09,28,01,26,10.30
2007,09,28,01,27,10.30
2007,09,28,01,28,10.20
2007,09,28,01,29,10.20
2007,09,28,01,30,10.20
2007,09,28,01,31,10.10
2007,09,28,01,32,10.10
2007,09,28,01,33,10.00
2007,09,28,01,34,10.00
2007,09,28,01,35,10.00
2007,09,28,01,36,9.90
2007,09,28,01,37,9.90
2007,09,28,01,38,9.80
2007,09,28,01,39,9.80
2007,09,28,01,40,9.80
2007,09,28,01,41,9.80
2007,09,28,01,42,9.70
2007,09,28,01,43,9.70
2007,09,28,01,44,9.70
2007,09,28,01,45,9.70
2007,09,28,01,46,9.70
2007,09,28,01,47,9.70
2007,09,28,01,48,9.60
2007,09,28,01,49,9.60
2007,09,28,01,50,9.60
2007,09,28,01,51,9.50
2007,09,28,01,52,9.50
2007,09,28,01,53,9.40
2007,09,28,01,54,9.40
2007,09,28,01,55,9.50
2007,09,28,01,56,9.50
2007,09,28,01,57,9.60
2007,09,28,01,58,9.70
2007,09,28,01,59,9.80
2007,09,28,02,00,9.90
2007,09,28,02,01,10.10
2007,09,28,02,02,10.20
2007,09,28,02,03,10.30
2007,09,28,02,04,10.40
2007,09,28,02,05,10.40
2007,09,28,02,06,10.30
2007,09,28,02,07,10.30
2007,09,28,02,08,10.20
2007,09,28,02,09,10.20
2007,09,28,02,10,10.20
2007,09,28,02,11,10.20
2007,09,28,02,12,10.20
2007,09,28,02,13,10.20
2007,09,28,02,14,10.20
2007,09,28,02,15,10.30
2007,09,28,02,16,10.30
2007,09,28,02,17,10.40
2007,09,28,02,18,10.50
2007,09,28,02,19,10.60
2007,09,28,02,20,10.70
2007,09,28,02,21,10.70
2007,09,28,02,22,10.70
2007,09,28,02,23,10.80
2007,09,28,02,24,10.80
2007,09,28,02,25,10.80
2007,09,28,02,26,10.80
2007,09,28,02,27,10.80
2007,09,28,02,28,10.80
2007,09,28,02,29,10.90
2007,09,28,02,30,10.90
2007,09,28,02,31,10.90
2007,09,28,02,32,10.90
2007,09,28,02,33,10.90
2007,09,28,02,34,10.90
2007,09,28,02,35,10.90
2007,09,28,02,36,10.90
2007,09,28,02,37,10.90
2007,09,28,02,38,10.80
2007,09,28,02,39,10.80
2007,09,28,02,40,10.80
2007,09,28,02,41,10.80
2007,09,28,02,42,10.80
2007,09,28,02,43,10.80
2007,09,28,02,44,10.80
2007,09,28,02,45,10.80
2007,09,28,02,46,10.80
2007,09,28,02,47,10.80
2007,09,28,02,48,10.80
2007,09,28,02,49,10.80
2007,09,28,02,50,10.80
2007,09,28,02,51,10.80
2007,09,28,02,52,10.80
2007,09,28,02,53,10.80
2007,09,28,02,54,10.80
2007,09,28,02,55,10.80
2007,09,28,02,56,10.80
2007,09,28,02,57,10.80
2007,09,28,02,58,10.80
2007,09,28,02,59,10.80
2007,09,28,03,00,10.80
2007,09,28,03,01,10.80
2007,09,28,03,02,10.80
2007,09,28,03,03,10.80
2007,09,28,03,04,10.80
2007,09,28,03,05,10.80
2007,09,28,03,06,10.80
2007,09,28,03,07,10.70
2007,09,28,03,08,10.70
2007,09,28,03,09,10.70
2007,09,28,03,10,10.70
2007,09,28,03,11,10.70
2007,09,28,03,12,10.70
2007,09,28,03,13,10.70
2007,09,28,03,14,10.70
2007,09,28,03,15,10.70
2007,09,28,03,16,10.70
2007,09,28,03,17,10.70
2007,09,28,03,18,10.80
2007,09,28,03,19,10.80
2007,09,28,03,20,10.80
2007,09,28,03,21,10.80
2007,09,28,03,22,10.80
2007,09,28,03,23,10.80
2007,09,28,03,24,10.80
2007,09,28,03,25,10.80
2007,09,28,03,26,10.80
2007,09,28,03,27,10.80
2007,09,28,03,28,10.80
2007,09,28,03,29,10.80
2007,09,28,03,30,10.80
2007,09,28,03,31,10.80
2007,09,28,03,32,10.80
2007,09,28,03,33,10.80
2007,09,28,03,34,10.80
2007,09,28,03,35,10.80
2007,09,28,03,36,10.80
2007,09,28,03,37,10.80
2007,09,28,03,38,10.80
2007,09,28,03,39,10.80
2007,09,28,03,40,10.80
2007,09,28,03,41,10.80
2007,09,28,03,42,10.70
2007,09,28,03,43,10.70
2007,09,28,03,44,10.70
2007,09,28,03,45,10.70
2007,09,28,03,46,10.70
2007,09,28,03,47,10.70
2007,09,28,03,48,10.70
2007,09,28,03,49,10.70
2007,09,28,03,50,10.70
2007,09,28,03,51,10.60
2007,09,28,03,52,10.60
2007,09,28,03,53,10.60
2007,09,28,03,54,10.60
2007,09,28,03,55,10.60
2007,09,28,03,56,10.60
2007,09,28,03,57,10.60
2007,09,28,03,58,10.60
2007,09,28,03,59,10.60
2007,09,28,04,00,10.60
2007,09,28,04,01,10.60
2007,09,28,04,02,10.60
2007,09,28,04,03,10.60
2007,09,28,04,04,10.60
2007,09,28,04,05,10.50
2007,09,28,04,06,10.50
2007,09,28,04,07,10.50
2007,09,28,04,08,10.50
2007,09,28,04,09,10.40
2007,09,28,04,10,10.40
2007,09,28,04,11,10.30
2007,09,28,04,12,10.30
2007,09,28,04,13,10.20
2007,09,28,04,14,10.20
2007,09,28,04,15,10.10
2007,09,28,04,16,10.00
2007,09,28,04,17,10.00
2007,09,28,04,18,9.90
2007,09,28,04,19,9.90
2007,09,28,04,20,9.90
2007,09,28,04,21,9.90
2007,09,28,04,22,9.90
2007,09,28,04,23,9.90
2007,09,28,04,24,10.00
2007,09,28,04,25,10.00
2007,09,28,04,26,10.00
2007,09,28,04,27,10.10
2007,09,28,04,28,10.10
2007,09,28,04,29,10.20
2007,09,28,04,30,10.20
2007,09,28,04,31,10.20
2007,09,28,04,32,10.20
2007,09,28,04,33,10.20
2007,09,28,04,34,10.20
2007,09,28,04,35,10.10
2007,09,28,04,36,10.10
2007,09,28,04,37,10.00
2007,09,28,04,38,9.90
2007,09,28,04,39,9.90
2007,09,28,04,40,9.80
2007,09,28,04,41,9.80
2007,09,28,04,42,9.70
2007,09,28,04,43,9.60
2007,09,28,04,44,9.60
2007,09,28,04,45,9.50
2007,09,28,04,46,9.40
2007,09,28,04,47,9.40
2007,09,28,04,48,9.30
2007,09,28,04,49,9.30
2007,09,28,04,50,9.30
2007,09,28,04,51,9.20
2007,09,28,04,52,9.20
2007,09,28,04,53,9.20
2007,09,28,04,54,9.20
2007,09,28,04,55,9.20
2007,09,28,04,56,9.20
2007,09,28,04,57,9.10
2007,09,28,04,58,9.10
2007,09,28,04,59,9.10
2007,09,28,05,00,9.00
2007,09,28,05,01,8.90
2007,09,28,05,02,8.90
2007,09,28,05,03,8.90
2007,09,28,05,04,8.80
2007,09,28,05,05,8.80
2007,09,28,05,06,8.80
2007,09,28,05,07,8.80
2007,09,28,05,08,8.80
2007,09,28,05,09,8.80
2007,09,28,05,10,8.80
2007,09,28,05,11,8.80
2007,09,28,05,12,8.80
2007,09,28,05,13,8.80
2007,09,28,05,14,8.70
2007,09,28,05,15,8.70
2007,09,28,05,16,8.70
2007,09,28,05,17,8.60
2007,09,28,05,18,8.60
2007,09,28,05,19,8.50
2007,09,28,05,20,8.50
2007,09,28,05,21,8.40
2007,09,28,05,22,8.40
2007,09,28,05,23,8.30
2007,09,28,05,24,8.30
2007,09,28,05,25,8.30
2007,09,28,05,26,8.20
2007,09,28,05,27,8.20
2007,09,28,05,28,8.20
2007,09,28,05,29,8.20
2007,09,28,05,30,8.20
2007,09,28,05,31,8.20
2007,09,28,05,32,8.20
2007,09,28,05,33,8.20
2007,09,28,05,34,8.30
2007,09,28,05,35,8.30
2007,09,28,05,36,8.30
2007,09,28,05,37,8.30
2007,09,28,05,38,8.30
2007,09,28,05,39,8.30
2007,09,28,05,40,8.30
2007,09,28,05,41,8.30
2007,09,28,05,42,8.30
2007,09,28,05,43,8.30
2007,09,28,05,44,8.20
2007,09,28,05,45,8.20
2007,09,28,05,46,8.20
2007,09,28,05,47,8.20
2007,09,28,05,48,8.20
2007,09,28,05,49,8.20
2007,09,28,05,50,8.20
2007,09,28,05,51,8.10
2007,09,28,05,52,8.10
2007,09,28,05,53,8.10
2007,09,28,05,54,8.10
2007,09,28,05,55,8.10
2007,09,28,05,56,8.10
2007,09,28,05,57,8.10
2007,09,28,05,58,8.10
2007,09,28,05,59,8.10
2007,09,28,06,00,8.00
2007,09,28,06,01,7.90
2007,09,28,06,02,7.80
2007,09,28,06,03,7.80
2007,09,28,06,04,7.70
2007,09,28,06,05,7.70
2007,09,28,06,06,7.60
2007,09,28,06,07,7.60
2007,09,28,06,08,7.50
2007,09,28,06,09,7.50
2007,09,28,06,10,7.50
2007,09,28,06,11,7.40
2007,09,28,06,12,7.40
2007,09,28,06,13,7.40
2007,09,28,06,14,7.40
2007,09,28,06,15,7.40
2007,09,28,06,16,7.40
2007,09,28,06,17,7.40
2007,09,28,06,18,7.40
2007,09,28,06,19,7.40
2007,09,28,06,20,7.40
2007,09,28,06,21,7.40
2007,09,28,06,22,7.40
2007,09,28,06,23,7.40
2007,09,28,06,24,7.50
2007,09,28,06,25,7.40
2007,09,28,06,26,7.40
2007,09,28,06,27,7.30
2007,09,28,06,28,7.30
2007,09,28,06,29,7.20
2007,09,28,06,30,7.20
2007,09,28,06,31,7.10
2007,09,28,06,32,7.10
2007,09,28,06,33,7.00
2007,09,28,06,34,6.90
2007,09,28,06,35,6.90
2007,09,28,06,36,6.90
2007,09,28,06,37,6.90
2007,09,28,06,38,6.90
2007,09,28,06,39,6.90
2007,09,28,06,40,6.90
2007,09,28,06,41,6.80
2007,09,28,06,42,6.80
2007,09,28,06,43,6.80
2007,09,28,06,44,6.80
2007,09,28,06,45,6.80
2007,09,28,06,46,6.80
2007,09,28,06,47,6.80
2007,09,28,06,48,6.80
2007,09,28,06,49,6.70
2007,09,28,06,50,6.70
2007,09,28,06,51,6.70
2007,09,28,06,52,6.60
2007,09,28,06,53,6.60
2007,09,28,06,54,6.60
2007,09,28,06,55,6.60
2007,09,28,06,56,6.60
2007,09,28,06,57,6.60
2007,09,28,06,58,6.60
2007,09,28,06,59,6.60
2007,09,28,07,00,6.60
2007,09,28,07,01,6.60
2007,09,28,07,02,6.60
2007,09,28,07,03,6.60
2007,09,28,07,04,6.50
2007,09,28,07,05,6.50
2007,09,28,07,06,6.50
2007,09,28,07,07,6.50
2007,09,28,07,08,6.50
2007,09,28,07,09,6.50
2007,09,28,07,10,6.40
2007,09,28,07,11,6.40
2007,09,28,07,12,6.40
2007,09,28,07,13,6.40
2007,09,28,07,14,6.40
2007,09,28,07,15,6.40
2007,09,28,07,16,6.30
2007,09,28,07,17,6.30
2007,09,28,07,18,6.30
2007,09,28,07,19,6.30
2007,09,28,07,20,6.30
2007,09,28,07,21,6.30
2007,09,28,07,22,6.30
2007,09,28,07,23,6.30
2007,09,28,07,24,6.30
2007,09,28,07,25,6.30
2007,09,28,07,26,6.20
2007,09,28,07,27,6.20
2007,09,28,07,28,6.20
2007,09,28,07,29,6.20
2007,09,28,07,30,6.20
2007,09,28,07,31,6.20
2007,09,28,07,32,6.20
2007,09,28,07,33,6.20
2007,09,28,07,34,6.20
2007,09,28,07,35,6.20
2007,09,28,07,36,6.20
2007,09,28,07,37,6.20
2007,09,28,07,38,6.20
2007,09,28,07,39,6.20
2007,09,28,07,40,6.20
2007,09,28,07,41,6.20
2007,09,28,07,42,6.20
2007,09,28,07,43,6.10
2007,09,28,07,44,6.10
2007,09,28,07,45,6.10
2007,09,28,07,46,6.10
2007,09,28,07,47,6.10
2007,09,28,07,48,6.10
2007,09,28,07,49,6.10
2007,09,28,07,50,6.10
2007,09,28,07,51,6.10
2007,09,28,07,52,6.10
2007,09,28,07,53,6.10
2007,09,28,07,54,6.10
2007,09,28,07,55,6.10
2007,09,28,07,56,6.10
2007,09,28,07,57,6.10
2007,09,28,07,58,6.20
2007,09,28,07,59,6.20
2007,09,28,08,00,6.20
2007,09,28,08,01,6.20
2007,09,28,08,02,6.20
2007,09,28,08,03,6.20
2007,09,28,08,04,6.30
2007,09,28,08,05,6.30
2007,09,28,08,06,6.30
2007,09,28,08,07,6.40
2007,09,28,08,08,6.40
2007,09,28,08,09,6.50
2007,09,28,08,10,6.60
2007,09,28,08,11,6.60
2007,09,28,08,12,6.70
2007,09,28,08,13,6.80
2007,09,28,08,14,6.90
2007,09,28,08,15,7.00
2007,09,28,08,16,7.10
2007,09,28,08,17,7.20
2007,09,28,08,18,7.20
2007,09,28,08,19,7.30
2007,09,28,08,20,7.50
2007,09,28,08,21,7.60
2007,09,28,08,22,7.70
2007,09,28,08,23,7.90
2007,09,28,08,24,8.00
2007,09,28,08,25,8.10
2007,09,28,08,26,8.20
2007,09,28,08,27,8.30
2007,09,28,08,28,8.40
2007,09,28,08,29,8.50
2007,09,28,08,30,8.60
2007,09,28,08,31,8.60
2007,09,28,08,32,8.70
2007,09,28,08,33,8.80
2007,09,28,08,34,9.00
2007,09,28,08,35,9.10
2007,09,28,08,36,9.20
2007,09,28,08,37,9.20
2007,09,28,08,38,9.30
2007,09,28,08,39,9.30
2007,09,28,08,40,9.30
2007,09,28,08,41,9.40
2007,09,28,08,42,9.40
2007,09,28,08,43,9.40
2007,09,28,08,44,9.40
2007,09,28,08,45,9.50
2007,09,28,08,46,9.60
2007,09,28,08,47,9.60
2007,09,28,08,48,9.60
2007,09,28,08,49,9.70
2007,09,28,08,50,9.80
2007,09,28,08,51,9.90
2007,09,28,08,52,10.00
2007,09,28,08,53,10.20
2007,09,28,08,54,10.30
2007,09,28,08,55,10.50
2007,09,28,08,56,10.60
2007,09,28,08,57,10.70
2007,09,28,08,58,10.80
2007,09,28,08,59,10.90
2007,09,28,09,00,11.00
2007,09,28,09,01,11.10
2007,09,28,09,02,11.20
2007,09,28,09,03,11.30
2007,09,28,09,04,11.40
2007,09,28,09,05,11.40
2007,09,28,09,06,11.50
2007,09,28,09,07,11.50
2007,09,28,09,08,11.50
2007,09,28,09,09,11.50
2007,09,28,09,10,11.50
2007,09,28,09,11,11.50
2007,09,28,09,12,11.50
2007,09,28,09,13,11.50
2007,09,28,09,14,11.50
2007,09,28,09,15,11.50
2007,09,28,09,16,11.50
2007,09,28,09,17,11.50
2007,09,28,09,18,11.50
2007,09,28,09,19,11.40
2007,09,28,09,20,11.40
2007,09,28,09,21,11.40
2007,09,28,09,22,11.30
2007,09,28,09,23,11.30
2007,09,28,09,24,11.30
2007,09,28,09,25,11.20
2007,09,28,09,26,11.20
2007,09,28,09,27,11.20
2007,09,28,09,28,11.20
2007,09,28,09,29,11.20
2007,09,28,09,30,11.20
2007,09,28,09,31,11.20
2007,09,28,09,32,11.20
2007,09,28,09,33,11.20
2007,09,28,09,34,11.20
2007,09,28,09,35,11.20
2007,09,28,09,36,11.20
2007,09,28,09,37,11.20
2007,09,28,09,38,11.20
2007,09,28,09,39,11.20
2007,09,28,09,40,11.30
2007,09,28,09,41,11.30
2007,09,28,09,42,11.30
2007,09,28,09,43,11.30
2007,09,28,09,44,11.30
2007,09,28,09,45,11.30
2007,09,28,09,46,11.30
2007,09,28,09,47,11.30
2007,09,28,09,48,11.30
2007,09,28,09,49,11.40
2007,09,28,09,50,11.40
2007,09,28,09,51,11.40
2007,09,28,09,52,11.40
2007,09,28,09,53,11.50
2007,09,28,09,54,11.50
2007,09,28,09,55,11.50
2007,09,28,09,56,11.50
2007,09,28,09,57,11.50
2007,09,28,09,58,11.50
2007,09,28,09,59,11.50
2007,09,28,10,00,11.50
2007,09,28,10,01,11.40
2007,09,28,10,02,11.40
2007,09,28,10,03,11.40
2007,09,28,10,04,11.40
2007,09,28,10,05,11.30
2007,09,28,10,06,11.30
2007,09,28,10,07,11.30
2007,09,28,10,08,11.30
2007,09,28,10,09,11.30
2007,09,28,10,10,11.30
2007,09,28,10,11,11.30
2007,09,28,10,12,11.30
2007,09,28,10,13,11.40
2007,09,28,10,14,11.40
2007,09,28,10,15,11.50
2007,09,28,10,16,11.50
2007,09,28,10,17,11.60
2007,09,28,10,18,11.70
2007,09,28,10,19,11.80
2007,09,28,10,20,12.00
2007,09,28,10,21,12.10
2007,09,28,10,22,12.20
2007,09,28,10,23,12.30
2007,09,28,10,24,12.40
2007,09,28,10,25,12.50
2007,09,28,10,26,12.70
2007,09,28,10,27,12.70
2007,09,28,10,28,12.80
2007,09,28,10,29,12.90
2007,09,28,10,30,13.00
2007,09,28,10,31,13.00
2007,09,28,10,32,13.10
2007,09,28,10,33,13.20
2007,09,28,10,34,13.30
2007,09,28,10,35,13.30
2007,09,28,10,36,13.40
2007,09,28,10,37,13.40
2007,09,28,10,38,13.50
2007,09,28,10,39,13.60
2007,09,28,10,40,13.60
2007,09,28,10,41,13.60
2007,09,28,10,42,13.50
2007,09,28,10,43,13.40
2007,09,28,10,44,13.40
2007,09,28,10,45,13.40
2007,09,28,10,46,13.50
2007,09,28,10,47,13.60
2007,09,28,10,48,13.70
2007,09,28,10,49,13.80
2007,09,28,10,50,13.90
2007,09,28,10,51,14.00
2007,09,28,10,52,14.10
2007,09,28,10,53,14.20
2007,09,28,10,54,14.20
2007,09,28,10,55,14.30
2007,09,28,10,56,14.30
2007,09,28,10,57,14.40
2007,09,28,10,58,14.40
2007,09,28,10,59,14.40
2007,09,28,11,00,14.40
2007,09,28,11,01,14.30
2007,09,28,11,02,14.30
2007,09,28,11,03,14.20
2007,09,28,11,04,14.20
2007,09,28,11,05,14.10
2007,09,28,11,06,14.00
2007,09,28,11,07,14.00
2007,09,28,11,08,14.00
2007,09,28,11,09,14.00
2007,09,28,11,10,14.00
2007,09,28,11,11,14.00
2007,09,28,11,12,13.90
2007,09,28,11,13,13.90
2007,09,28,11,14,13.90
2007,09,28,11,15,13.80
2007,09,28,11,16,13.80
2007,09,28,11,17,13.70
2007,09,28,11,18,13.70
2007,09,28,11,19,13.60
2007,09,28,11,20,13.50
2007,09,28,11,21,13.40
2007,09,28,11,22,13.30
2007,09,28,11,23,13.20
2007,09,28,11,24,13.20
2007,09,28,11,25,13.20
2007,09,28,11,26,13.20
2007,09,28,11,27,13.10
2007,09,28,11,28,13.20
2007,09,28,11,29,13.20
2007,09,28,11,30,13.20
2007,09,28,11,31,13.30
2007,09,28,11,32,13.30
2007,09,28,11,33,13.30
2007,09,28,11,34,13.40
2007,09,28,11,35,13.40
2007,09,28,11,36,13.50
2007,09,28,11,37,13.60
2007,09,28,11,38,13.60
2007,09,28,11,39,13.70
2007,09,28,11,40,13.70
2007,09,28,11,41,13.70
2007,09,28,11,42,13.70
2007,09,28,11,43,13.60
2007,09,28,11,44,13.60
2007,09,28,11,45,13.60
2007,09,28,11,46,13.60
2007,09,28,11,47,13.60
2007,09,28,11,48,13.70
2007,09,28,11,49,13.70
2007,09,28,11,50,13.70
2007,09,28,11,51,13.70
2007,09,28,11,52,13.80
2007,09,28,11,53,13.80
2007,09,28,11,54,13.80
2007,09,28,11,55,13.80
2007,09,28,11,56,13.90
2007,09,28,11,57,14.00
2007,09,28,11,58,14.00
2007,09,28,11,59,13.90
2007,09,28,12,00,14.00
2007,09,28,12,01,14.10
2007,09,28,12,02,14.20
2007,09,28,12,03,14.20
2007,09,28,12,04,14.30
2007,09,28,12,05,14.40
2007,09,28,12,06,14.30
2007,09,28,12,07,14.20
2007,09,28,12,08,14.10
2007,09,28,12,09,14.10
2007,09,28,12,10,14.00
2007,09,28,12,11,13.90
2007,09,28,12,12,13.80
2007,09,28,12,13,13.80
2007,09,28,12,14,13.70
2007,09,28,12,15,13.50
2007,09,28,12,16,13.40
2007,09,28,12,17,13.40
2007,09,28,12,18,13.30
2007,09,28,12,19,13.30
2007,09,28,12,20,13.40
2007,09,28,12,21,13.50
2007,09,28,12,22,13.50
2007,09,28,12,23,13.50
2007,09,28,12,24,13.50
2007,09,28,12,25,13.40
2007,09,28,12,26,13.30
2007,09,28,12,27,13.30
2007,09,28,12,28,13.30
2007,09,28,12,29,13.20
2007,09,28,12,30,13.10
2007,09,28,12,31,13.00
2007,09,28,12,32,12.90
2007,09,28,12,33,12.90
2007,09,28,12,34,12.80
2007,09,28,12,35,12.80
2007,09,28,12,36,12.80
2007,09,28,12,37,12.80
2007,09,28,12,38,12.80
2007,09,28,12,39,12.80
2007,09,28,12,40,12.80
2007,09,28,12,41,12.80
2007,09,28,12,42,12.90
2007,09,28,12,43,12.90
2007,09,28,12,44,12.90
2007,09,28,12,45,12.90
2007,09,28,12,46,12.80
2007,09,28,12,47,12.70
2007,09,28,12,48,12.70
2007,09,28,12,49,12.60
2007,09,28,12,50,12.60
2007,09,28,12,51,12.60
2007,09,28,12,52,12.60
2007,09,28,12,53,12.60
2007,09,28,12,54,12.60
2007,09,28,12,55,12.60
2007,09,28,12,56,12.60
2007,09,28,12,57,12.60
2007,09,28,12,58,12.60
2007,09,28,12,59,12.70
2007,09,28,13,00,12.70
2007,09,28,13,01,12.80
2007,09,28,13,02,12.80
2007,09,28,13,03,12.80
2007,09,28,13,04,12.90
2007,09,28,13,05,12.90
2007,09,28,13,06,12.90
2007,09,28,13,07,12.90
2007,09,28,13,08,12.90
2007,09,28,13,09,12.90
2007,09,28,13,10,12.80
2007,09,28,13,11,12.80
2007,09,28,13,12,12.80
2007,09,28,13,13,12.80
2007,09,28,13,14,12.80
2007,09,28,13,15,12.80
2007,09,28,13,16,12.80
2007,09,28,13,17,12.80
2007,09,28,13,18,12.90
2007,09,28,13,19,13.00
2007,09,28,13,20,13.00
2007,09,28,13,21,12.90
2007,09,28,13,22,12.80
2007,09,28,13,23,12.80
2007,09,28,13,24,12.80
2007,09,28,13,25,12.80
2007,09,28,13,26,12.80
2007,09,28,13,27,12.80
2007,09,28,13,28,12.90
2007,09,28,13,29,12.90
2007,09,28,13,30,13.00
2007,09,28,13,31,13.10
2007,09,28,13,32,13.20
2007,09,28,13,33,13.30
2007,09,28,13,34,13.30
2007,09,28,13,35,13.30
2007,09,28,13,36,13.40
2007,09,28,13,37,13.50
2007,09,28,13,38,13.50
2007,09,28,13,39,13.50
2007,09,28,13,40,13.50
2007,09,28,13,41,13.60
2007,09,28,13,42,13.60
2007,09,28,13,43,13.50
2007,09,28,13,44,13.60
2007,09,28,13,45,13.60
2007,09,28,13,46,13.60
2007,09,28,13,47,13.60
2007,09,28,13,48,13.60
2007,09,28,13,49,13.50
2007,09,28,13,50,13.40
2007,09,28,13,51,13.30
2007,09,28,13,52,13.20
2007,09,28,13,53,13.20
2007,09,28,13,54,13.20
2007,09,28,13,55,13.20
2007,09,28,13,56,13.20
2007,09,28,13,57,13.30
2007,09,28,13,58,13.40
2007,09,28,13,59,13.50
2007,09,28,14,00,13.50
2007,09,28,14,01,13.60
2007,09,28,14,02,13.70
2007,09,28,14,03,13.80
2007,09,28,14,04,13.80
2007,09,28,14,05,13.90
2007,09,28,14,06,13.80
2007,09,28,14,07,13.80
2007,09,28,14,08,13.80
2007,09,28,14,09,13.60
2007,09,28,14,10,13.50
2007,09,28,14,11,13.50
2007,09,28,14,12,13.50
2007,09,28,14,13,13.60
2007,09,28,14,14,13.60
2007,09,28,14,15,13.60
2007,09,28,14,16,13.60
2007,09,28,14,17,13.60
2007,09,28,14,18,13.60
2007,09,28,14,19,13.70
2007,09,28,14,20,13.70
2007,09,28,14,21,13.80
2007,09,28,14,22,13.80
2007,09,28,14,23,13.90
2007,09,28,14,24,13.90
2007,09,28,14,25,13.80
2007,09,28,14,26,13.90
2007,09,28,14,27,13.90
2007,09,28,14,28,13.90
2007,09,28,14,29,13.90
2007,09,28,14,30,13.90
2007,09,28,14,31,13.90
2007,09,28,14,32,14.00
2007,09,28,14,33,13.90
2007,09,28,14,34,13.90
2007,09,28,14,35,13.90
2007,09,28,14,36,13.80
2007,09,28,14,37,13.70
2007,09,28,14,38,13.70
2007,09,28,14,39,13.60
2007,09,28,14,40,13.60
2007,09,28,14,41,13.60
2007,09,28,14,42,13.60
2007,09,28,14,43,13.70
2007,09,28,14,44,13.70
2007,09,28,14,45,13.60
2007,09,28,14,46,13.50
2007,09,28,14,47,13.40
2007,09,28,14,48,13.40
2007,09,28,14,49,13.30
2007,09,28,14,50,13.30
2007,09,28,14,51,13.40
2007,09,28,14,52,13.40
2007,09,28,14,53,13.50
2007,09,28,14,54,13.50
2007,09,28,14,55,13.60
2007,09,28,14,56,13.60
2007,09,28,14,57,13.70
2007,09,28,14,58,13.80
2007,09,28,14,59,13.80
2007,09,28,15,00,13.80
2007,09,28,15,01,13.80
2007,09,28,15,02,13.90
2007,09,28,15,03,13.90
2007,09,28,15,04,14.00
2007,09,28,15,05,14.10
2007,09,28,15,06,14.10
2007,09,28,15,07,14.10
2007,09,28,15,08,14.00
2007,09,28,15,09,13.80
2007,09,28,15,10,13.70
2007,09,28,15,11,13.70
2007,09,28,15,12,13.60
2007,09,28,15,13,13.60
2007,09,28,15,14,13.60
2007,09,28,15,15,13.70
2007,09,28,15,16,13.60
2007,09,28,15,17,13.60
2007,09,28,15,18,13.60
2007,09,28,15,19,13.60
2007,09,28,15,20,13.60
2007,09,28,15,21,13.60
2007,09,28,15,22,13.70
2007,09,28,15,23,13.70
2007,09,28,15,24,13.70
2007,09,28,15,25,13.70
2007,09,28,15,26,13.80
2007,09,28,15,27,13.80
2007,09,28,15,28,13.80
2007,09,28,15,29,13.90
2007,09,28,15,30,14.00
2007,09,28,15,31,14.00
2007,09,28,15,32,14.00
2007,09,28,15,33,13.90
2007,09,28,15,34,13.90
2007,09,28,15,35,13.80
2007,09,28,15,36,13.80
2007,09,28,15,37,13.80
2007,09,28,15,38,13.80
2007,09,28,15,39,13.80
2007,09,28,15,40,13.80
2007,09,28,15,41,13.80
2007,09,28,15,42,13.80
2007,09,28,15,43,13.70
2007,09,28,15,44,13.70
2007,09,28,15,45,13.70
2007,09,28,15,46,13.70
2007,09,28,15,47,13.70
2007,09,28,15,48,13.70
2007,09,28,15,49,13.70
2007,09,28,15,50,13.80
2007,09,28,15,51,13.80
2007,09,28,15,52,13.80
2007,09,28,15,53,13.80
2007,09,28,15,54,13.80
2007,09,28,15,55,13.90
2007,09,28,15,56,13.90
2007,09,28,15,57,13.90
2007,09,28,15,58,13.90
2007,09,28,15,59,13.90
2007,09,28,16,00,13.80
2007,09,28,16,01,13.70
2007,09,28,16,02,13.70
2007,09,28,16,03,13.70
2007,09,28,16,04,13.60
2007,09,28,16,05,13.60
2007,09,28,16,06,13.50
2007,09,28,16,07,13.50
2007,09,28,16,08,13.50
2007,09,28,16,09,13.40
2007,09,28,16,10,13.40
2007,09,28,16,11,13.40
2007,09,28,16,12,13.30
2007,09,28,16,13,13.30
2007,09,28,16,14,13.30
2007,09,28,16,15,13.30
2007,09,28,16,16,13.30
2007,09,28,16,17,13.30
2007,09,28,16,18,13.30
2007,09,28,16,19,13.30
2007,09,28,16,20,13.40
2007,09,28,16,21,13.40
2007,09,28,16,22,13.40
2007,09,28,16,23,13.40
2007,09,28,16,24,13.40
2007,09,28,16,25,13.40
2007,09,28,16,26,13.30
2007,09,28,16,27,13.30
2007,09,28,16,28,13.30
2007,09,28,16,29,13.30
2007,09,28,16,30,13.30
2007,09,28,16,31,13.30
2007,09,28,16,32,13.30
2007,09,28,16,33,13.30
2007,09,28,16,34,13.30
2007,09,28,16,35,13.40
2007,09,28,16,36,13.40
2007,09,28,16,37,13.40
2007,09,28,16,38,13.40
2007,09,28,16,39,13.40
2007,09,28,16,40,13.50
2007,09,28,16,41,13.50
2007,09,28,16,42,13.50
2007,09,28,16,43,13.50
2007,09,28,16,44,13.40
2007,09,28,16,45,13.40
2007,09,28,16,46,13.40
2007,09,28,16,47,13.50
2007,09,28,16,48,13.50
2007,09,28,16,49,13.60
2007,09,28,16,50,13.60
2007,09,28,16,51,13.60
2007,09,28,16,52,13.60
2007,09,28,16,53,13.50
2007,09,28,16,54,13.50
2007,09,28,16,55,13.50
2007,09,28,16,56,13.40
2007,09,28,16,57,13.50
2007,09,28,16,58,13.50
2007,09,28,16,59,13.60
2007,09,28,17,00,13.60
2007,09,28,17,01,13.70
2007,09,28,17,02,13.80
2007,09,28,17,03,13.80
2007,09,28,17,04,13.90
2007,09,28,17,05,13.90
2007,09,28,17,06,14.00
2007,09,28,17,07,14.00
2007,09,28,17,08,14.00
2007,09,28,17,09,14.00
2007,09,28,17,10,14.00
2007,09,28,17,11,13.90
2007,09,28,17,12,13.90
2007,09,28,17,13,13.80
2007,09,28,17,14,13.70
2007,09,28,17,15,13.70
2007,09,28,17,16,13.60
2007,09,28,17,17,13.50
2007,09,28,17,18,13.50
2007,09,28,17,19,13.40
2007,09,28,17,20,13.40
2007,09,28,17,21,13.30
2007,09,28,17,22,13.30
2007,09,28,17,23,13.30
2007,09,28,17,24,13.30
2007,09,28,17,25,13.30
2007,09,28,17,26,13.20
2007,09,28,17,27,13.20
2007,09,28,17,28,13.20
2007,09,28,17,29,13.20
2007,09,28,17,30,13.20
2007,09,28,17,31,13.10